TimeMDT,TemperatureF,Dew PointF,Humidity,Sea Level PressureIn,VisibilityMPH,Wind Direction,Wind SpeedMPH,Gust SpeedMPH,PrecipitationIn,Events,Conditions,WindDirDegrees,DateUTC
12:53 AM,48.0,37.0,66,30.21,10.0,North,11.5,-,N/A,,Partly Cloudy,10,2013-05-11 06:53:00
1:53 AM,45.0,37.9,76,30.25,10.0,NE,6.9,-,N/A,,Mostly Cloudy,50,2013-05-11 07:53:00
2:53 AM,46.9,37.9,71,30.27,10.0,NW,9.2,-,N/A,,Mostly Cloudy,320,2013-05-11 08:53:00
3:53 AM,48.0,39.0,71,30.27,10.0,NW,9.2,-,N/A,,Mostly Cloudy,320,2013-05-11 09:53:00
4:53 AM,46.0,37.9,73,30.28,10.0,NW,5.8,-,N/A,,Scattered Clouds,320,2013-05-11 10:53:00
5:53 AM,46.9,37.9,71,30.29,10.0,NNW,3.5,-,N/A,,Scattered Clouds,340,2013-05-11 11:53:00
6:53 AM,45.0,39.9,82,30.33,10.0,Calm,Calm,-,N/A,,Partly Cloudy,0,2013-05-11 12:53:00
7:53 AM,50.0,39.9,68,30.32,10.0,East,9.2,-,N/A,,Partly Cloudy,90,2013-05-11 13:53:00
8:53 AM,52.0,39.9,63,30.30,10.0,ESE,10.4,-,N/A,,Scattered Clouds,110,2013-05-11 14:53:00
9:53 AM,55.0,39.9,57,30.29,10.0,SE,6.9,-,N/A,,Partly Cloudy,130,2013-05-11 15:53:00
10:53 AM,57.0,39.9,53,30.27,10.0,SE,4.6,-,N/A,,Partly Cloudy,140,2013-05-11 16:53:00
11:53 AM,62.1,41.0,46,30.24,10.0,SE,5.8,-,N/A,,Scattered Clouds,130,2013-05-11 17:53:00
12:53 PM,64.0,39.0,40,30.22,10.0,ESE,5.8,-,N/A,,Scattered Clouds,110,2013-05-11 18:53:00
1:53 PM,66.9,34.0,30,30.20,10.0,Calm,Calm,-,N/A,,Scattered Clouds,0,2013-05-11 19:53:00
2:53 PM,69.1,35.1,29,30.16,10.0,NE,6.9,-,N/A,,Scattered Clouds,40,2013-05-11 20:53:00
3:53 PM,66.0,33.1,29,30.15,10.0,NNW,5.8,-,N/A,,Mostly Cloudy,340,2013-05-11 21:53:00
4:53 PM,64.9,35.1,33,30.16,10.0,North,13.8,-,N/A,,Mostly Cloudy,350,2013-05-11 22:53:00
5:53 PM,62.1,39.9,44,30.14,10.0,East,10.4,-,N/A,,Mostly Cloudy,90,2013-05-11 23:53:00
6:53 PM,61.0,39.0,44,30.17,10.0,South,9.2,-,N/A,,Scattered Clouds,180,2013-05-12 00:53:00
7:53 PM,53.6,42.8,67,30.28,10.0,South,10.4,-,N/A,,Scattered Clouds,170,2013-05-12 01:53:00
8:53 PM,50.0,43.0,77,30.18,10.0,SSE,11.5,-,N/A,,Scattered Clouds,160,2013-05-12 02:53:00
9:53 PM,48.0,41.0,77,30.17,10.0,South,12.7,-,N/A,,Scattered Clouds,170,2013-05-12 03:53:00
10:53 PM,50.0,39.9,68,30.14,10.0,SSW,9.2,-,N/A,,Scattered Clouds,200,2013-05-12 04:53:00
11:53 PM,52.0,39.0,61,30.11,10.0,SSW,13.8,-,N/A,,Partly Cloudy,210,2013-05-12 05:53:00